Volver al catálogo

STARLINK-4588

ActivoComunicacionesVLEO
NORAD 53641·PAYLOAD·🇺🇸 United States

Lanzado Aug 28, 2022 desde Cape Canaveral Space Force Station

Loading…

Próximos Pases (próximas 24 horas)

TLE

ActualizadoSource: CelesTrak SupGP

Época: Sep 15, 2026, 01:16 UTC

1 53641C 22104BF  26258.05326389  .00009448  00000+0  30380-3 0  2586
2 53641  53.1569  83.1936 0001400  87.1133  84.9491 15.31699683    15

Sigue STARLINK-4588 en tiempo real con AllMySat

Download on the App Store